Concordia, KS

10:27 AM CST on November 21, 2019 (GMT -0600)
Blosser Municipal

Weather History for KCNK - September, 2019

Change the Weather History Date:

Sunday, September 8, 2019

  Actual Average Record
Temperature  
Mean Temperature 78 °F 71 °F  
Max Temperature 88 °F 83 °F 102 °F (2013)
Min Temperature 67 °F 59 °F 43 °F (1890)
Degree Days  
Heating Degree Days 0 1  
Month to date heating degree days 0 6  
Since 1 July heating degree days 0 9  
Cooling Degree Days 13 7  
Month to date cooling degree days 103 66  
Year to date cooling degree days 1380 1232  
Growing Degree Days 27 (Base 50)    
Moisture  
Dew Point 68 °F    
Average Humidity 77    
Maximum Humidity 100    
Minimum Humidity 53    
Precipitation  
Precipitation 0.00 in 0.10 in 1.77 in (1989)
Month to date precipitation T 0.77  
Year to date precipitation 28.84 21.87  
Snow  
Snow 0.00 in 0.00 in T in (1936)
Month to date snowfall 0.0 0.0  
Year to date snowfall 32.3 13.7  
Since 1 July snowfall 0.0 0.0  
Snow Depth 0.00 in    
Sea Level Pressure  
Sea Level Pressure 29.88 in    
Wind  
Wind Speed 6 mph (ENE)    
Max Wind Speed 13 mph    
Max Gust Speed 17 mph    
Visibility 8 miles    
Events Fog    
T = Trace of Precipitation, MM = Missing Value Source: NWS Daily Summary

Daily Weather History Graph

Daily Weather History Graph

Search for Another Location

Airport or City:

Astronomy

Sep. 08, 2019 Rise Set
Actual Time 7:05 AM CDT 7:50 PM CDT
Civil Twilight 6:37 AM CDT 8:17 PM CDT
Nautical Twilight 6:05 AM CDT 8:50 PM CDT
Astronomical Twilight 5:32 AM CDT 9:23 PM CDT
Moon 4:59 PM CDT (9/8) 1:47 AM CDT (9/8)
Length of Visible Light 13h 40m
Length of Day
12h 45m
Waxing Gibbous, 75% of the Moon is Illuminated
Sep 8
Waxing Gibbous
Sep 13
Full
Sep 21
Last Quarter
Sep 28
New
Oct 5
First Quarter

Hourly Weather History & Observations

Time (CDT) Temp. Heat Index Dew Point Humidity Pressure Visibility Wind Dir Wind Speed Gust Speed Precip Events Conditions
12:55 AM 72.0 °F - 66.9 °F 84% 29.86 in 10.0 mi East 9.2 mph - N/A   Partly Cloudy
1:55 AM 70.0 °F - 66.0 °F 87% 29.86 in 10.0 mi NNE 9.2 mph - N/A   Clear
2:55 AM 69.1 °F - 64.9 °F 87% 29.85 in 10.0 mi NE 4.6 mph - N/A   Clear
3:55 AM 68.0 °F - 64.9 °F 90% 29.85 in 10.0 mi ENE 4.6 mph - N/A   Clear
4:14 AM 68.0 °F - 66.0 °F 93% 29.90 in 10.0 mi Calm Calm - N/A   Scattered Clouds
4:39 AM 68.0 °F - 66.2 °F 94% 29.90 in 10.0 mi East 5.8 mph - N/A   Overcast
4:55 AM 69.1 °F - 66.9 °F 93% 29.86 in 10.0 mi East 6.9 mph - N/A   Overcast
5:39 AM 69.1 °F - 66.9 °F 93% 29.89 in 1.8 mi NE 6.9 mph - N/A   Overcast
5:41 AM 69.1 °F - 66.9 °F 93% 29.89 in 1.2 mi NE 6.9 mph - N/A   Overcast
5:50 AM 68.0 °F - 66.2 °F 94% 29.89 in 0.5 mi NE 5.8 mph - N/A Fog Fog
5:55 AM 68.0 °F - 66.9 °F 96% 29.84 in 0.5 mi NE 6.9 mph - N/A Fog Fog
6:44 AM 68.0 °F - 66.9 °F 96% 29.90 in 1.2 mi ENE 9.2 mph - N/A   Overcast
6:48 AM 68.0 °F - 66.9 °F 96% 29.90 in 1.8 mi ENE 9.2 mph - N/A   Overcast
6:52 AM 68.0 °F - 66.2 °F 94% 29.90 in 3.0 mi NE 8.1 mph - N/A   Overcast
6:55 AM 68.0 °F - 66.9 °F 96% 29.86 in 5.0 mi ENE 6.9 mph - N/A   Overcast
7:55 AM 66.9 °F - 66.0 °F 97% 29.91 in 10.0 mi East 8.1 mph - N/A   Overcast
8:55 AM 68.0 °F - 66.0 °F 93% 29.91 in 6.0 mi NE 6.9 mph - N/A   Overcast
9:55 AM 70.0 °F - 66.9 °F 90% 29.91 in 10.0 mi NE 5.8 mph - N/A   Overcast
10:29 AM 73.0 °F - 68.0 °F 84% 29.94 in 10.0 mi NE 5.8 mph - N/A   Overcast
10:55 AM 75.0 °F - 69.1 °F 82% 29.90 in 10.0 mi NNE 9.2 mph - N/A   Scattered Clouds
11:35 AM 75.0 °F - 69.1 °F 82% 29.95 in 10.0 mi SE 4.6 mph - N/A   Mostly Cloudy
11:53 AM 75.2 °F - 69.8 °F 83% 29.95 in 10.0 mi East 4.6 mph - N/A   Scattered Clouds
11:55 AM 77.0 °F - 70.0 °F 79% 29.91 in 10.0 mi East 5.8 mph - N/A   Scattered Clouds
12:55 PM 79.0 °F - 70.0 °F 74% 29.88 in 10.0 mi ENE 5.8 mph - N/A   Clear
1:55 PM 81.0 °F 84.9 °F 71.1 °F 72% 29.88 in 10.0 mi Calm Calm - N/A   Partly Cloudy
2:55 PM 86.0 °F 92.2 °F 72.0 °F 63% 29.86 in 10.0 mi Variable 5.8 mph - N/A   Clear
3:55 PM 87.1 °F 90.6 °F 68.0 °F 53% 29.85 in 10.0 mi SE 6.9 mph - N/A   Clear
4:55 PM 86.0 °F 91.5 °F 71.1 °F 61% 29.84 in 10.0 mi East 5.8 mph - N/A   Clear
5:55 PM 84.9 °F 88.2 °F 68.0 °F 57% 29.83 in 10.0 mi North - - N/A   Clear
6:55 PM 82.9 °F 87.0 °F 70.0 °F 65% 29.84 in 10.0 mi ESE 3.5 mph - N/A   Clear
7:55 PM 78.1 °F - 71.1 °F 79% 29.85 in 10.0 mi SE 6.9 mph - N/A   Clear
9:55 PM 73.9 °F - 72.0 °F 93% 29.86 in 10.0 mi East 5.8 mph - N/A   Clear
10:55 PM 73.0 °F - 71.1 °F 93% 29.86 in 10.0 mi East 4.6 mph - N/A   Clear
11:55 PM 73.0 °F - 71.1 °F 93% 29.85 in 8.0 mi ESE 5.8 mph - N/A   Clear